Regional Weather Roundup
Issued by NWS

Home | Current Version | Previous Version | Graphics & Text | Print | Product List | Glossary On
Versions: 1 2 3 4 5 6 7 8 9 10 11 12 13 14 15 16 17 18 19 20 21 22 23 24 25 26 27 28 29 30 31 32 33 34 35 36 37 38 39 40 41 42 43 44 45 46 47 48 49 50
000
ASUS44 KMEG 222310
RWRTN
TENNESSEE HOURLY STATE WEATHER ROUNDUP
NATIONAL WEATHER SERVICE MEMPHIS TN
500 PM CST SAT NOV 22 2014

TNZ002-004-019-021-049-052-054-088>092-230000-
WEST TENNESSEE

CITY           SKY/WX    TMP DP  RH WIND       PRES   REMARKS
MEMPHIS INTL   MOCLDY    61  41  47 SE3       30.05F
NWS MEMPHIS      N/A     61 N/A N/A MISG        N/A
JACKSON        PTCLDY    61  36  39 VRB3      30.07F
DYERSBURG      CLOUDY    63  36  36 SE9       30.07F
UNION CITY     PTCLDY    59  39  47 S9        30.05F
PARIS          MOCLDY    57  36  44 S6        30.09F
HUNTINGDON     PTCLDY    57  33  40 S8        30.09F
LEXINGTON      MOCLDY    61  34  36 S3        30.09F
SAVANNAH       CLEAR     61  36  39 SE3       30.10F
$$

TNZ008-025-027-028-033-062-065-066-230000-
NORTH MIDDLE TENNESSEE

CITY           SKY/WX    TMP DP  RH WIND       PRES   REMARKS
NASHVILLE      MOCLDY    61  36  39 S9        30.14S
CLARKSVILLE    PTCLDY    59  33  37 S7        30.10S
SMYRNA         PTCLDY    61  41  47 S8        30.15S
COOKEVILLE     CLEAR     57  37  47 S10       30.18R
CROSSVILLE     CLEAR     54  33  45 S7        30.21F
$$

TNZ061-075-076-078-094-096-097-230000-
SOUTH MIDDLE TENNESSEE

CITY           SKY/WX    TMP DP  RH WIND       PRES   REMARKS
FAYETTEVILLE   CLEAR     52  37  58 N18G82    30.17F
TULLAHOMA      CLEAR     57  39  51 S7        30.18F
WINCHESTER     CLEAR     55  37  50 SE7       30.19F
MCMINNVILLE    CLEAR     57  39  51 CALM      30.18S
COLUMBIA       CLOUDY    61  41  48 SE7       30.12F
SHELBYVILLE    CLEAR     59  43  55 S7        30.17F
$$

TNZ017-018-042-046-047-230000-
NORTHEAST TENNESSEE

CITY           SKY/WX    TMP DP  RH WIND       PRES   REMARKS
TRI CITIES     PTCLDY    47  24  40 CALM      30.23F
ELIZABETHTON   CLEAR     39  27  60 CALM      30.23F
$$

TNZ012-013-036-069-073-074-230000-
CENTRAL EAST TENNESSEE

CITY           SKY/WX    TMP DP  RH WIND       PRES   REMARKS
KNOXVILLE      PTCLDY    53  28  38 E3        30.22S
OAK RIDGE      CLEAR     52  33  48 CALM      30.23F
GATLINBURG     CLEAR     46  25  42 CALM      30.23F
MORRISTOWN     CLEAR     52  27  37 SE3       30.24S
$$

TNZ083-085-099-230000-
SOUTHEAST TENNESSEE

CITY           SKY/WX    TMP DP  RH WIND       PRES   REMARKS
CHATTANOOGA    MOCLDY    58  29  33 SE7       30.24S
$$

SKY/WX REPORTED AS FAIR MEANS FEW OR NO CLOUDS BELOW
12 THOUSAND FEET.




USA.gov is the U.S. government's official web portal to all federal, state and local government web resources and services.